Weather observations for the past three days for
Titusville
| Date | Time (edt) | Wind (mph) | Vis. (mi.) | Weather | Sky Cond. | Temperature (ºF) | Relative Humidity | Wind Chill (°F) | Heat Index (°F) | Pressure | Precipitation (in) | ||||||
|---|---|---|---|---|---|---|---|---|---|---|---|---|---|---|---|---|---|
| Air | Dwpt | 6 hour | altimeter (in) | sea level (mb) | 1 hr | 3 hr | 6 hr | ||||||||||
| Max. | Min. | ||||||||||||||||
| 07 | 17:47 | SW 7 G 14 | 7.00 | A Few Clouds | FEW030 | 96.8 | 60.8 | 30% | 97 | 29.9 | 0.0 | ||||||
| 07 | 16:47 | W 7 G 14 | 7.00 | A Few Clouds | FEW050 | 96.8 | 57.2 | 27% | 96 | 29.91 | 0.0 | ||||||
| 07 | 15:47 | SW 12 G 17 | 7.00 | A Few Clouds | FEW050 | 96.8 | 59 | 28% | 96 | 29.93 | 0.0 | ||||||
| 07 | 14:47 | SW 13 G 20 | 7.00 | A Few Clouds | FEW050 | 96.8 | 57.2 | 27% | 96 | 29.96 | 0.0 | ||||||
| 07 | 13:47 | SW 13 G 20 | 7.00 | A Few Clouds | FEW050 | 95 | 64.4 | 36% | 97 | 29.98 | 0.0 | ||||||
| 07 | 12:57 | W 13 G 20 | 7.00 | A Few Clouds | FEW045 | 93.2 | 64.4 | 39% | 95 | 29.99 | 0.0 | ||||||
| 07 | 12:47 | Vrbl 7 | 7.00 | Fair | CLR | 93.2 | 66.2 | 41% | 96 | 29.99 | 0.0 | ||||||
| 07 | 11:47 | Vrbl 7 | 7.00 | Fair | CLR | 89.6 | 66.2 | 46% | 92 | 30.01 | 0.0 | ||||||
| 07 | 09:47 | SW 12 | 7.00 | Fair | CLR | 84.2 | 68 | 58% | 87 | 30.03 | 0.0 | ||||||
| 07 | 08:47 | S 8 | 7.00 | Fair | CLR | 78.8 | 69.8 | 74% | 81 | 30.03 | 0.0 | ||||||
| 07 | 07:47 | S 6 | 7.00 | Fair | CLR | 73.4 | 68 | 83% | 30.02 | 0.0 | |||||||
| 07 | 06:47 | S 6 | 7.00 | Fair | CLR | 69.8 | 68 | 94% | 30.01 | 0.0 | |||||||
| 06 | 20:47 | SE 12 G 17 | 7.00 | Fair | CLR | 80.6 | 62.6 | 54% | 82 | 30.01 | 0.0 | ||||||
| 06 | 19:47 | SE 12 G 17 | 7.00 | Fair | CLR | 84.2 | 59 | 43% | 84 | 30.01 | 0.0 | ||||||
| 06 | 18:47 | SE 12 G 17 | 7.00 | Fair | CLR | 86 | 59 | 40% | 85 | 30.01 | 0.0 | ||||||
| 06 | 17:47 | SE 12 G 17 | 7.00 | Fair | CLR | 87.8 | 57.2 | 35% | 87 | 30.01 | 0.0 | ||||||
| 06 | 16:47 | SE 10 G 16 | 7.00 | A Few Clouds | FEW040 | 89.6 | 57.2 | 33% | 88 | 30.01 | 0.0 | ||||||
| 06 | 15:47 | SE 10 G 16 | 7.00 | A Few Clouds | FEW040 | 91.4 | 57.2 | 32% | 90 | 30.02 | 0.0 | ||||||
| 06 | 14:47 | SE 10 G 16 | 7.00 | A Few Clouds | FEW040 | 91.4 | 53.6 | 28% | 89 | 30.04 | 0.0 | ||||||
| 06 | 13:47 | SE 10 G 16 | 7.00 | A Few Clouds | FEW060 | 91.4 | 57.2 | 32% | 90 | 30.04 | 0.0 | ||||||
| 06 | 12:47 | E 6 | 7.00 | A Few Clouds | FEW060 | 89.6 | 62.6 | 41% | 90 | 30.06 | 0.0 | ||||||
| 06 | 11:47 | SE 12 | 7.00 | A Few Clouds | FEW060 | 87.8 | 62.6 | 43% | 88 | 30.07 | 0.0 | ||||||
| 06 | 10:47 | SE 8 | 7.00 | A Few Clouds | FEW060 | 86 | 64.4 | 49% | 87 | 30.07 | 0.0 | ||||||
| 06 | 09:47 | S 8 | 7.00 | Partly Cloudy | SCT120 | 82.4 | 69.8 | 66% | 86 | 30.06 | 0.0 | ||||||
| 06 | 07:47 | Calm | 7.00 | Partly Cloudy | SCT120 | 68 | 64.4 | 88% | 30.04 | 0.0 | |||||||
| 06 | 06:47 | Calm | 7.00 | Partly Cloudy | SCT120 | 64.4 | 62.6 | 94% | 30.02 | 0.0 | |||||||
| 05 | 20:47 | SE 6 | 7.00 | Fair | CLR | 77 | 59 | 54% | 79 | 30.01 | 0.0 | ||||||
| 05 | 19:47 | E 7 | 7.00 | Fair | CLR | 78.8 | 57.2 | 48% | 80 | 30 | 0.0 | ||||||
| 05 | 18:47 | E 8 | 7.00 | Fair | CLR | 82.4 | 57.2 | 42% | 82 | 30.01 | 0.0 | ||||||
| 05 | 17:47 | E 9 | 7.00 | A Few Clouds | FEW050 | 82.4 | 55.4 | 40% | 82 | 30.01 | 0.0 | ||||||
| 05 | 16:47 | E 8 | 7.00 | A Few Clouds | FEW050 | 84.2 | 55.4 | 37% | 83 | 30 | 0.0 | ||||||
| 05 | 15:47 | E 9 | 7.00 | A Few Clouds | FEW050 | 84.2 | 53.6 | 35% | 83 | 30.02 | 0.0 | ||||||
| 05 | 14:47 | E 9 | 7.00 | Partly Cloudy | SCT065 | 86 | 55.4 | 35% | 85 | 30.03 | 0.0 | ||||||
| 05 | 13:47 | E 13 | 7.00 | Partly Cloudy | SCT075 | 86 | 55.4 | 35% | 85 | 30.04 | 0.0 | ||||||
| 05 | 12:47 | E 8 | 7.00 | Partly Cloudy | SCT075 | 86 | 55.4 | 35% | 85 | 30.05 | 0.0 | ||||||
| 05 | 11:47 | E 8 | 7.00 | Partly Cloudy | SCT075 | 84.2 | 57.2 | 40% | 83 | 30.04 | 0.0 | ||||||
| 05 | 10:47 | E 9 | 7.00 | Partly Cloudy | SCT075 | 82.4 | 57.2 | 42% | 82 | 30.04 | 0.0 | ||||||
| 05 | 09:47 | E 5 | 7.00 | Partly Cloudy | SCT075 | 77 | 64.4 | 65% | 79 | 30.03 | 0.0 | ||||||
| 05 | 08:47 | E 5 | 7.00 | Partly Cloudy | SCT075 | 77 | 64.4 | 65% | 79 | 30.03 | 0.0 | ||||||
| 05 | 07:47 | E 6 | 7.00 | Fair | CLR | 75.2 | 64.4 | 69% | 77 | 30.02 | 0.0 | ||||||
| 05 | 06:47 | Calm | 7.00 | Fair | CLR | 69.8 | 62.6 | 78% | 29.99 | 0.0 | |||||||
| 04 | 20:47 | E 6 | 7.00 | Fair | CLR | 75.2 | 59 | 57% | 78 | 30.02 | 0.0 | ||||||
| 04 | 19:47 | E 6 | 7.00 | Fair | CLR | 77 | 57.2 | 51% | 79 | 30.01 | 0.0 | ||||||
| 04 | 18:47 | E 12 | 7.00 | Partly Cloudy | SCT040 | 78.8 | 57.2 | 48% | 80 | 30 | 0.0 | ||||||
| Date | Time (edt) | Wind (mph) | Vis. (mi.) | Weather | Sky Cond. | Air | Dwpt | Max. | Min. | Relative Humidity | Wind Chill (°F) | Heat Index (°F) | altimeter (in) | sea level (mb) | 1 hr | 3 hr | 6 hr |
| 6 hour | |||||||||||||||||
| Temperature (ºF) | Pressure | Precipitation (in) | |||||||||||||||